User: anonymous   Login
Location: Unspecified
(0.0000°N, 0.0000°E)
Time: 13:43:53
(UTC+00:00)
Language:

NOSS 7 (H) - Orbit

View from above orbital plane
View from above orbital plane
View from above satellite
View from above satellite

Ground track
Ground track

The orbit data is extracted from the following two-line orbital elements,

1 16631U 86014H   19134.91337098 0.00000700  00000-0  59304-4 0    09
2 16631  63.2785 168.9976 0931944  63.2685 296.7315 13.46842285    02
Epoch (UTC): 14 May 2019 21:55:15
Eccentricity: 0.0931944
inclination: 63.2785°
perigee height: 388 km
apogee height: 1779 km
right ascension of ascending node: 168.9976°
argument of perigee: 63.2685°
revolutions per day: 13.46842285
mean anomaly at epoch: 296.7315°
orbit number at epoch: 0

The dashed part of the orbit path shows where the satellite is in the earth's shadow,  

DLR